Data supplied by UK-AIR on 30/4/2024
All Data GMT hour ending 
Status: R =Ratified P=Provisional,P*=As supplied
,,Fort William,,,,,,,,,,,,,,,,,,,,,,,
Date,time,"Nitric oxide",status,unit,"Nitrogen dioxide",status,unit,"Nitrogen oxides as nitrogen dioxide",status,unit,"Ozone",status,unit
 
01-01-2024,01:00,,,,,,,,,,11.90768,P,ugm-3
01-01-2024,02:00,,,,,,,,,,6.31972,P,ugm-3
01-01-2024,03:00,,,,,,,,,,10.87657,P,ugm-3
01-01-2024,04:00,,,,,,,,,,17.01334,P,ugm-3
01-01-2024,05:00,,,,,,,,,,21.25421,P,ugm-3
01-01-2024,06:00,,,,,,,,,,40.21336,P,ugm-3
01-01-2024,07:00,,,,,,,,,,55.23100,P,ugm-3
01-01-2024,08:00,,,,,,,,,,61.06842,P,ugm-3
01-01-2024,09:00,,,,,,,,,,65.40907,P,ugm-3
01-01-2024,10:00,,,,,,,,,,62.31573,P,ugm-3
01-01-2024,11:00,,,,,,,,,,57.87530,P,ugm-3
01-01-2024,12:00,,,,,,,,,,49.24390,P,ugm-3
01-01-2024,13:00,,,,,,,,,,35.82282,P,ugm-3
01-01-2024,14:00,,,,,,,,,,47.63071,P,ugm-3
01-01-2024,15:00,,,,,,,,,,58.27444,P,ugm-3
01-01-2024,16:00,,,,,,,,,,34.22626,P,ugm-3
01-01-2024,17:00,,,,,,,,,,30.58410,P,ugm-3
01-01-2024,18:00,,,,,,,,,,36.52131,P,ugm-3
01-01-2024,19:00,,,,,,,,,,47.04863,P,ugm-3
01-01-2024,20:00,,,,,,,,,,50.34153,P,ugm-3
01-01-2024,21:00,,,,,,,,,,53.58455,P,ugm-3
01-01-2024,22:00,,,,,,,,,,67.85380,P,ugm-3
01-01-2024,23:00,,,,,,,,,,72.14456,P,ugm-3
01-01-2024,24:00,,,,,,,,,,75.13811,P,ugm-3
02-01-2024,01:00,,,,,,,,,,74.50613,P,ugm-3
02-01-2024,02:00,,,,,,,,,,75.63703,P,ugm-3
02-01-2024,03:00,,,,,,,,,,73.89079,P,ugm-3
02-01-2024,04:00,,,,,,,,,,73.14241,P,ugm-3
02-01-2024,05:00,,,,,,,,,,73.79101,P,ugm-3
02-01-2024,06:00,,,,,,,,,,74.19015,P,ugm-3
02-01-2024,07:00,,,,,,,,,,71.29638,P,ugm-3
02-01-2024,08:00,,,,,,,,,,72.04477,P,ugm-3
02-01-2024,09:00,,,,,,,,,,71.44606,P,ugm-3
02-01-2024,10:00,,,,,,,,,,70.99703,P,ugm-3
02-01-2024,11:00,,,,,,,,,,61.31788,P,ugm-3
02-01-2024,12:00,,,,,,,,,,54.88175,P,ugm-3
02-01-2024,13:00,,,,,,,,,,61.16821,P,ugm-3
02-01-2024,14:00,,,,,,,,,,60.51960,P,ugm-3
02-01-2024,15:00,,,,,,,,,,56.57810,P,ugm-3
02-01-2024,16:00,,,,,,,,,,55.87960,P,ugm-3
02-01-2024,17:00,,,,,,,,,,52.58670,P,ugm-3
02-01-2024,18:00,,,,,,,,,,45.75142,P,ugm-3
02-01-2024,19:00,,,,,,,,,,30.28475,P,ugm-3
02-01-2024,20:00,,,,,,,,,,23.34969,P,ugm-3
02-01-2024,21:00,,,,,,,,,,21.00474,P,ugm-3
02-01-2024,22:00,,,,,,,,,,30.58410,P,ugm-3
02-01-2024,23:00,,,,,,,,,,37.66884,P,ugm-3
02-01-2024,24:00,,,,,,,,,,60.51960,P,ugm-3
03-01-2024,01:00,,,,,,,,,,63.99545,P,ugm-3
03-01-2024,02:00,,,,,,,,,,62.73150,P,ugm-3
03-01-2024,03:00,,,,,,,,,,64.16176,P,ugm-3
03-01-2024,04:00,,,,,,,,,,67.15531,P,ugm-3
03-01-2024,05:00,,,,,,,,,,63.51315,P,ugm-3
03-01-2024,06:00,,,,,,,,,,59.87100,P,ugm-3
03-01-2024,07:00,,,,,,,,,,54.93164,P,ugm-3
03-01-2024,08:00,,,,,,,,,,66.70627,P,ugm-3
03-01-2024,09:00,,,,,,,,,,63.76262,P,ugm-3
03-01-2024,10:00,,,,,,,,,,52.75300,P,ugm-3
03-01-2024,11:00,,,,,,,,,,47.94669,P,ugm-3
03-01-2024,12:00,,,,,,,,,,61.81681,P,ugm-3
03-01-2024,13:00,,,,,,,,,,66.25724,P,ugm-3
03-01-2024,14:00,,,,,,,,,,71.34628,P,ugm-3
03-01-2024,15:00,,,,,,,,,,69.60004,P,ugm-3
03-01-2024,16:00,,,,,,,,,,62.81466,P,ugm-3
03-01-2024,17:00,,,,,,,,,,64.76047,P,ugm-3
03-01-2024,18:00,,,,,,,,,,62.31573,P,ugm-3
03-01-2024,19:00,,,,,,,,,,43.15701,P,ugm-3
03-01-2024,20:00,,,,,,,,,,43.10712,P,ugm-3
03-01-2024,21:00,,,,,,,,,,51.13981,P,ugm-3
03-01-2024,22:00,,,,,,,,,,55.87960,P,ugm-3
03-01-2024,23:00,,,,,,,,,,58.92304,P,ugm-3
03-01-2024,24:00,,,,,,,,,,62.66498,P,ugm-3
04-01-2024,01:00,,,,,,,,,,58.93967,P,ugm-3
04-01-2024,02:00,,,,,,,,,,60.27014,P,ugm-3
04-01-2024,03:00,,,,,,,,,,58.93967,P,ugm-3
04-01-2024,04:00,,,,,,,,,,56.22885,P,ugm-3
04-01-2024,05:00,,,,,,,,,,57.82541,P,ugm-3
04-01-2024,06:00,,,,,,,,,,57.07702,P,ugm-3
04-01-2024,07:00,,,,,,,,,,53.28519,P,ugm-3
04-01-2024,08:00,,,,,,,,,,47.14841,P,ugm-3
04-01-2024,09:00,,,,,,,,,,43.70583,P,ugm-3
04-01-2024,10:00,,,,,,,,,,44.25465,P,ugm-3
04-01-2024,11:00,,,,,,,,,,39.56475,P,ugm-3
04-01-2024,12:00,,,,,,,,,,48.54540,P,ugm-3
04-01-2024,13:00,,,,,,,,,,51.78842,P,ugm-3
04-01-2024,14:00,3.52987,P,ugm-3,21.14171,P,ugm-3,26.55411,P,ugm-3,48.79487,P,ugm-3
04-01-2024,15:00,3.01173,P,ugm-3,18.27014,P,ugm-3,22.88806,P,ugm-3,54.58240,P,ugm-3
04-01-2024,16:00,1.19821,P,ugm-3,16.04715,P,ugm-3,17.88439,P,ugm-3,56.87745,P,ugm-3
04-01-2024,17:00,2.36404,P,ugm-3,22.48342,P,ugm-3,26.10824,P,ugm-3,44.30454,P,ugm-3
04-01-2024,18:00,2.52596,P,ugm-3,29.66633,P,ugm-3,33.53943,P,ugm-3,38.96604,P,ugm-3
04-01-2024,19:00,2.10497,P,ugm-3,28.13203,P,ugm-3,31.35961,P,ugm-3,39.51486,P,ugm-3
04-01-2024,20:00,10.03909,P,ugm-3,33.99957,P,ugm-3,49.39262,P,ugm-3,47.09852,P,ugm-3
04-01-2024,21:00,6.76829,P,ugm-3,20.43676,P,ugm-3,30.81466,P,ugm-3,50.39143,P,ugm-3
04-01-2024,22:00,0.90676,P,ugm-3,16.93992,P,ugm-3,18.33026,P,ugm-3,51.28949,P,ugm-3
04-01-2024,23:00,1.78113,P,ugm-3,21.54419,P,ugm-3,24.27521,P,ugm-3,46.84906,P,ugm-3
04-01-2024,24:00,0.68007,P,ugm-3,14.85999,P,ugm-3,15.90274,P,ugm-3,54.78197,P,ugm-3
05-01-2024,01:00,0.51895,P,ugm-3,3.90102,P,ugm-3,4.69672,P,ugm-3,54.34956,P,ugm-3
05-01-2024,02:00,0.47570,P,ugm-3,2.57815,P,ugm-3,3.30755,P,ugm-3,56.54483,P,ugm-3
05-01-2024,03:00,0.64869,P,ugm-3,3.76824,P,ugm-3,4.76288,P,ugm-3,54.43272,P,ugm-3
05-01-2024,04:00,0.42165,P,ugm-3,3.71946,P,ugm-3,4.36597,P,ugm-3,54.18326,P,ugm-3
05-01-2024,05:00,0.77842,P,ugm-3,4.01583,P,ugm-3,5.20939,P,ugm-3,52.58670,P,ugm-3
05-01-2024,06:00,0.77842,P,ugm-3,5.20655,P,ugm-3,6.40011,P,ugm-3,52.98584,P,ugm-3
05-01-2024,07:00,0.61625,P,ugm-3,5.70328,P,ugm-3,6.64818,P,ugm-3,41.26110,P,ugm-3
05-01-2024,08:00,2.01092,P,ugm-3,15.57122,P,ugm-3,18.65459,P,ugm-3,28.58840,P,ugm-3
05-01-2024,09:00,6.35711,P,ugm-3,29.89358,P,ugm-3,39.64101,P,ugm-3,19.90711,P,ugm-3
05-01-2024,10:00,8.46533,P,ugm-3,35.34334,P,ugm-3,48.32333,P,ugm-3,10.12818,P,ugm-3
05-01-2024,11:00,14.88731,P,ugm-3,32.29347,P,ugm-3,55.12035,P,ugm-3,17.26281,P,ugm-3
05-01-2024,12:00,9.21132,P,ugm-3,26.70790,P,ugm-3,40.83173,P,ugm-3,22.30195,P,ugm-3
05-01-2024,13:00,8.69237,P,ugm-3,24.82450,P,ugm-3,38.15261,P,ugm-3,25.64475,P,ugm-3
05-01-2024,14:00,5.48138,P,ugm-3,19.18031,P,ugm-3,27.58498,P,ugm-3,38.86626,P,ugm-3
05-01-2024,15:00,,,,,,,,,,59.17251,P,ugm-3
05-01-2024,16:00,2.07579,P,ugm-3,14.13220,P,ugm-3,17.31504,P,ugm-3,57.67573,P,ugm-3
05-01-2024,17:00,1.32980,P,ugm-3,14.63106,P,ugm-3,16.67006,P,ugm-3,50.79057,P,ugm-3
05-01-2024,18:00,4.02184,P,ugm-3,29.35637,P,ugm-3,35.52311,P,ugm-3,31.68174,P,ugm-3
05-01-2024,19:00,4.08671,P,ugm-3,14.12485,P,ugm-3,20.39106,P,ugm-3,52.33723,P,ugm-3
05-01-2024,20:00,9.47079,P,ugm-3,21.24950,P,ugm-3,35.77117,P,ugm-3,45.90110,P,ugm-3
05-01-2024,21:00,1.39467,P,ugm-3,8.08187,P,ugm-3,10.22034,P,ugm-3,56.02928,P,ugm-3
05-01-2024,22:00,1.00546,P,ugm-3,7.88484,P,ugm-3,9.42652,P,ugm-3,56.07917,P,ugm-3
05-01-2024,23:00,1.52441,P,ugm-3,16.11875,P,ugm-3,18.45614,P,ugm-3,41.36088,P,ugm-3
05-01-2024,24:00,1.10276,P,ugm-3,6.89222,P,ugm-3,8.58310,P,ugm-3,53.43487,P,ugm-3
06-01-2024,01:00,0.86497,P,ugm-3,4.89523,P,ugm-3,6.22149,P,ugm-3,61.53408,P,ugm-3
06-01-2024,02:00,0.56223,P,ugm-3,4.43281,P,ugm-3,5.29488,P,ugm-3,56.87745,P,ugm-3
06-01-2024,03:00,0.74603,P,ugm-3,5.01140,P,ugm-3,6.15531,P,ugm-3,54.48261,P,ugm-3
06-01-2024,04:00,0.84334,P,ugm-3,7.09598,P,ugm-3,8.38908,P,ugm-3,46.25035,P,ugm-3
06-01-2024,05:00,0.77847,P,ugm-3,9.13139,P,ugm-3,10.32503,P,ugm-3,28.38883,P,ugm-3
06-01-2024,06:00,0.84334,P,ugm-3,9.67723,P,ugm-3,10.97034,P,ugm-3,24.14797,P,ugm-3
06-01-2024,07:00,1.62181,P,ugm-3,16.87268,P,ugm-3,19.35942,P,ugm-3,15.86582,P,ugm-3
06-01-2024,08:00,4.21671,P,ugm-3,23.96351,P,ugm-3,30.42904,P,ugm-3,11.82452,P,ugm-3
06-01-2024,09:00,6.48725,P,ugm-3,28.42439,P,ugm-3,38.37137,P,ugm-3,6.58581,P,ugm-3
06-01-2024,10:00,11.38513,P,ugm-3,27.71504,P,ugm-3,45.17199,P,ugm-3,7.83312,P,ugm-3
06-01-2024,11:00,10.99589,P,ugm-3,22.75223,P,ugm-3,39.61236,P,ugm-3,8.63140,P,ugm-3
06-01-2024,12:00,27.05184,P,ugm-3,25.63376,P,ugm-3,67.11267,P,ugm-3,5.73764,P,ugm-3
06-01-2024,13:00,28.08980,P,ugm-3,29.05583,P,ugm-3,72.12626,P,ugm-3,7.33420,P,ugm-3
06-01-2024,14:00,17.32096,P,ugm-3,27.74723,P,ugm-3,54.30567,P,ugm-3,15.46668,P,ugm-3
06-01-2024,15:00,34.02564,P,ugm-3,34.20090,P,ugm-3,86.37281,P,ugm-3,8.58151,P,ugm-3
06-01-2024,16:00,34.31756,P,ugm-3,37.82373,P,ugm-3,90.44326,P,ugm-3,6.83527,P,ugm-3
06-01-2024,17:00,38.14504,P,ugm-3,39.74842,P,ugm-3,98.23666,P,ugm-3,4.04129,P,ugm-3
06-01-2024,18:00,44.53499,P,ugm-3,37.14837,P,ugm-3,105.43440,P,ugm-3,4.24086,P,ugm-3
06-01-2024,19:00,46.96770,P,ugm-3,27.16367,P,ugm-3,99.17982,P,ugm-3,4.09119,P,ugm-3
06-01-2024,20:00,37.07465,P,ugm-3,25.55465,P,ugm-3,82.40165,P,ugm-3,4.93936,P,ugm-3
06-01-2024,21:00,16.28300,P,ugm-3,21.24750,P,ugm-3,46.21442,P,ugm-3,3.44258,P,ugm-3
06-01-2024,22:00,19.13739,P,ugm-3,21.09019,P,ugm-3,50.43378,P,ugm-3,4.34065,P,ugm-3
06-01-2024,23:00,15.08286,P,ugm-3,20.01004,P,ugm-3,43.13677,P,ugm-3,3.74194,P,ugm-3
06-01-2024,24:00,4.86544,P,ugm-3,16.11855,P,ugm-3,23.57878,P,ugm-3,3.44258,P,ugm-3
07-01-2024,01:00,4.19535,P,ugm-3,14.22820,P,ugm-3,20.66098,P,ugm-3,4.05792,P,ugm-3
07-01-2024,02:00,5.53614,P,ugm-3,12.96701,P,ugm-3,21.45563,P,ugm-3,3.12660,P,ugm-3
07-01-2024,03:00,2.30312,P,ugm-3,10.67302,P,ugm-3,14.20442,P,ugm-3,4.98925,P,ugm-3
07-01-2024,04:00,1.71923,P,ugm-3,10.57499,P,ugm-3,13.21111,P,ugm-3,6.93506,P,ugm-3
07-01-2024,05:00,1.00559,P,ugm-3,8.93761,P,ugm-3,10.47949,P,ugm-3,11.32560,P,ugm-3
07-01-2024,06:00,1.65435,P,ugm-3,8.38984,P,ugm-3,10.92648,P,ugm-3,6.28646,P,ugm-3
07-01-2024,07:00,1.97874,P,ugm-3,7.99179,P,ugm-3,11.02581,P,ugm-3,8.88087,P,ugm-3
07-01-2024,08:00,2.30312,P,ugm-3,10.42469,P,ugm-3,13.95609,P,ugm-3,10.07829,P,ugm-3
07-01-2024,09:00,3.11408,P,ugm-3,11.31687,P,ugm-3,16.09173,P,ugm-3,7.63355,P,ugm-3
07-01-2024,10:00,5.87133,P,ugm-3,10.96307,P,ugm-3,19.96566,P,ugm-3,8.28216,P,ugm-3
07-01-2024,11:00,10.08831,P,ugm-3,11.40068,P,ugm-3,26.86921,P,ugm-3,9.97850,P,ugm-3
07-01-2024,12:00,21.14977,P,ugm-3,13.95868,P,ugm-3,46.38787,P,ugm-3,6.53592,P,ugm-3
07-01-2024,13:00,30.00543,P,ugm-3,17.21690,P,ugm-3,63.22458,P,ugm-3,9.82882,P,ugm-3
07-01-2024,14:00,32.14636,P,ugm-3,21.58273,P,ugm-3,70.87312,P,ugm-3,7.18452,P,ugm-3
07-01-2024,15:00,36.36333,P,ugm-3,25.99360,P,ugm-3,81.74993,P,ugm-3,6.98495,P,ugm-3
07-01-2024,16:00,35.77944,P,ugm-3,24.60426,P,ugm-3,79.46531,P,ugm-3,4.88947,P,ugm-3
07-01-2024,17:00,27.02110,P,ugm-3,26.70972,P,ugm-3,68.14150,P,ugm-3,6.18667,P,ugm-3
07-01-2024,18:00,36.62284,P,ugm-3,27.18500,P,ugm-3,83.33924,P,ugm-3,5.83742,P,ugm-3
07-01-2024,19:00,28.57814,P,ugm-3,27.60024,P,ugm-3,71.41944,P,ugm-3,5.93721,P,ugm-3
07-01-2024,20:00,20.43613,P,ugm-3,25.58207,P,ugm-3,56.91703,P,ugm-3,6.48603,P,ugm-3
07-01-2024,21:00,5.48207,P,ugm-3,17.22183,P,ugm-3,25.62756,P,ugm-3,7.73334,P,ugm-3
07-01-2024,22:00,8.46640,P,ugm-3,16.37087,P,ugm-3,29.35250,P,ugm-3,4.54022,P,ugm-3
07-01-2024,23:00,7.39593,P,ugm-3,13.88996,P,ugm-3,25.23024,P,ugm-3,5.28861,P,ugm-3
07-01-2024,24:00,2.23824,P,ugm-3,8.18988,P,ugm-3,11.62180,P,ugm-3,11.67485,P,ugm-3
08-01-2024,01:00,1.08134,P,ugm-3,6.35895,P,ugm-3,8.01699,P,ugm-3,15.03427,P,ugm-3
08-01-2024,02:00,0.86508,P,ugm-3,4.96790,P,ugm-3,6.29433,P,ugm-3,14.76818,P,ugm-3
08-01-2024,03:00,0.77857,P,ugm-3,6.26003,P,ugm-3,7.45381,P,ugm-3,12.67270,P,ugm-3
08-01-2024,04:00,1.23273,P,ugm-3,5.56365,P,ugm-3,7.45381,P,ugm-3,10.62710,P,ugm-3
08-01-2024,05:00,1.49226,P,ugm-3,5.81172,P,ugm-3,8.09981,P,ugm-3,11.02624,P,ugm-3
08-01-2024,06:00,3.08183,P,ugm-3,8.34361,P,ugm-3,13.06902,P,ugm-3,9.32990,P,ugm-3
08-01-2024,07:00,8.95353,P,ugm-3,13.90024,P,ugm-3,27.62880,P,ugm-3,5.73764,P,ugm-3
08-01-2024,08:00,10.99727,P,ugm-3,15.43760,P,ugm-3,32.29986,P,ugm-3,7.78323,P,ugm-3
08-01-2024,09:00,48.17390,P,ugm-3,22.43764,P,ugm-3,96.30326,P,ugm-3,2.89377,P,ugm-3
08-01-2024,10:00,70.49286,P,ugm-3,24.98786,P,ugm-3,133.07540,P,ugm-3,3.54237,P,ugm-3
08-01-2024,11:00,51.06109,P,ugm-3,22.38358,P,ugm-3,100.67617,P,ugm-3,5.68775,P,ugm-3
08-01-2024,12:00,57.74380,P,ugm-3,23.31762,P,ugm-3,111.85688,P,ugm-3,5.88732,P,ugm-3
08-01-2024,13:00,51.87210,P,ugm-3,24.91665,P,ugm-3,104.45276,P,ugm-3,9.28001,P,ugm-3
08-01-2024,14:00,29.00166,P,ugm-3,26.19355,P,ugm-3,70.66215,P,ugm-3,10.37764,P,ugm-3
08-01-2024,15:00,21.05378,P,ugm-3,28.39202,P,ugm-3,60.67404,P,ugm-3,10.87657,P,ugm-3
08-01-2024,16:00,35.84658,P,ugm-3,33.14009,P,ugm-3,88.10407,P,ugm-3,6.33635,P,ugm-3
08-01-2024,17:00,42.65905,P,ugm-3,32.83163,P,ugm-3,98.24125,P,ugm-3,4.29076,P,ugm-3
08-01-2024,18:00,54.07805,P,ugm-3,30.32975,P,ugm-3,113.24826,P,ugm-3,4.78968,P,ugm-3
08-01-2024,19:00,34.19212,P,ugm-3,28.91876,P,ugm-3,81.34594,P,ugm-3,4.54022,P,ugm-3
08-01-2024,20:00,37.69567,P,ugm-3,27.52208,P,ugm-3,85.32131,P,ugm-3,5.03914,P,ugm-3
08-01-2024,21:00,67.83275,P,ugm-3,27.57588,P,ugm-3,131.58464,P,ugm-3,5.78753,P,ugm-3
08-01-2024,22:00,33.51087,P,ugm-3,24.84504,P,ugm-3,76.22766,P,ugm-3,4.49033,P,ugm-3
08-01-2024,23:00,19.98325,P,ugm-3,21.58583,P,ugm-3,52.22638,P,ugm-3,4.44043,P,ugm-3
08-01-2024,24:00,2.10862,P,ugm-3,8.44446,P,ugm-3,11.67764,P,ugm-3,15.81592,P,ugm-3
09-01-2024,01:00,1.12467,P,ugm-3,4.70577,P,ugm-3,6.43024,P,ugm-3,17.96130,P,ugm-3
09-01-2024,02:00,1.08141,P,ugm-3,1.92158,P,ugm-3,3.57972,P,ugm-3,19.82395,P,ugm-3
09-01-2024,03:00,1.49235,P,ugm-3,6.26332,P,ugm-3,8.55156,P,ugm-3,13.22151,P,ugm-3
09-01-2024,04:00,,,,,,,,,,15.41678,P,ugm-3
09-01-2024,05:00,,,,,,,,,,18.11098,P,ugm-3
09-01-2024,06:00,,,,,,,,,,9.03054,P,ugm-3
09-01-2024,07:00,,,,,,,,,,4.49033,P,ugm-3
09-01-2024,08:00,,,,,,,,,,4.04129,P,ugm-3
09-01-2024,09:00,,,,,,,,,,3.84172,P,ugm-3
09-01-2024,10:00,,,,,,,,,,3.59226,P,ugm-3
09-01-2024,11:00,,,,,,,,,,8.78108,P,ugm-3
09-01-2024,12:00,,,,,,,,,,8.48173,P,ugm-3
09-01-2024,13:00,,,,,,,,,,11.57506,P,ugm-3
09-01-2024,14:00,,,,,,,,,,16.06539,P,ugm-3
09-01-2024,15:00,,,,,,,,,,11.52517,P,ugm-3
09-01-2024,16:00,,,,,,,,,,10.52732,P,ugm-3
09-01-2024,17:00,,,,,,,,,,6.43613,P,ugm-3
09-01-2024,18:00,,,,,,,,,,4.59011,P,ugm-3
09-01-2024,19:00,,,,,,,,,,4.54022,P,ugm-3
09-01-2024,20:00,,,,,,,,,,5.53807,P,ugm-3
09-01-2024,21:00,,,,,,,,,,5.78753,P,ugm-3
09-01-2024,22:00,,,,,,,,,,7.33420,P,ugm-3
09-01-2024,23:00,,,,,,,,,,13.47098,P,ugm-3
09-01-2024,24:00,,,,,,,,,,18.56001,P,ugm-3
10-01-2024,01:00,,,,,,,,,,12.77248,P,ugm-3
10-01-2024,02:00,,,,,,,,,,14.03642,P,ugm-3
10-01-2024,03:00,,,,,,,,,,15.01764,P,ugm-3
10-01-2024,04:00,,,,,,,,,,17.41248,P,ugm-3
10-01-2024,05:00,,,,,,,,,,16.36474,P,ugm-3
10-01-2024,06:00,,,,,,,,,,23.00044,P,ugm-3
10-01-2024,07:00,,,,,,,,,,10.47743,P,ugm-3
10-01-2024,08:00,,,,,,,,,,4.59011,P,ugm-3
10-01-2024,09:00,,,,,,,,,,3.49248,P,ugm-3
10-01-2024,10:00,,,,,,,,,,4.68990,P,ugm-3
10-01-2024,11:00,,,,,,,,,,7.78323,P,ugm-3
10-01-2024,12:00,32.44442,P,ugm-3,32.97789,P,ugm-3,82.72531,P,ugm-3,8.48173,P,ugm-3
10-01-2024,13:00,37.34353,P,ugm-3,35.66368,P,ugm-3,92.92296,P,ugm-3,9.97850,P,ugm-3
10-01-2024,14:00,28.38887,P,ugm-3,37.15679,P,ugm-3,80.68578,P,ugm-3,12.87227,P,ugm-3
10-01-2024,15:00,13.59421,P,ugm-3,32.28309,P,ugm-3,53.12726,P,ugm-3,18.41033,P,ugm-3
10-01-2024,16:00,13.52932,P,ugm-3,33.57646,P,ugm-3,54.32113,P,ugm-3,21.80302,P,ugm-3
10-01-2024,17:00,9.73333,P,ugm-3,31.58700,P,ugm-3,46.51122,P,ugm-3,23.79872,P,ugm-3
10-01-2024,18:00,18.39599,P,ugm-3,42.62956,P,ugm-3,70.83634,P,ugm-3,10.47743,P,ugm-3
10-01-2024,19:00,9.11688,P,ugm-3,30.49267,P,ugm-3,44.47169,P,ugm-3,26.99184,P,ugm-3
10-01-2024,20:00,1.36267,P,ugm-3,12.53553,P,ugm-3,14.62492,P,ugm-3,43.85551,P,ugm-3
10-01-2024,21:00,1.13555,P,ugm-3,14.47559,P,ugm-3,16.21675,P,ugm-3,41.06153,P,ugm-3
10-01-2024,22:00,0.90844,P,ugm-3,10.14782,P,ugm-3,11.54075,P,ugm-3,45.70153,P,ugm-3
10-01-2024,23:00,0.90844,P,ugm-3,10.04834,P,ugm-3,11.44126,P,ugm-3,41.41078,P,ugm-3
10-01-2024,24:00,0.55156,P,ugm-3,7.41190,P,ugm-3,8.25761,P,ugm-3,43.40648,P,ugm-3
11-01-2024,01:00,0.73545,P,ugm-3,7.23383,P,ugm-3,8.36151,P,ugm-3,36.98697,P,ugm-3
11-01-2024,02:00,0.64893,P,ugm-3,6.57016,P,ugm-3,7.56518,P,ugm-3,38.45049,P,ugm-3
11-01-2024,03:00,0.68138,P,ugm-3,7.16744,P,ugm-3,8.21220,P,ugm-3,35.32389,P,ugm-3
11-01-2024,04:00,0.94095,P,ugm-3,7.81462,P,ugm-3,9.25739,P,ugm-3,35.52346,P,ugm-3
11-01-2024,05:00,0.94095,P,ugm-3,5.97310,P,ugm-3,7.41586,P,ugm-3,31.43228,P,ugm-3
11-01-2024,06:00,6.61908,P,ugm-3,14.13909,P,ugm-3,24.28820,P,ugm-3,20.05679,P,ugm-3
11-01-2024,07:00,5.93770,P,ugm-3,25.48642,P,ugm-3,34.59077,P,ugm-3,8.63140,P,ugm-3
11-01-2024,08:00,52.39022,P,ugm-3,38.12418,P,ugm-3,118.45472,P,ugm-3,2.79398,P,ugm-3
11-01-2024,09:00,63.46527,P,ugm-3,41.29987,P,ugm-3,138.61194,P,ugm-3,3.52574,P,ugm-3
11-01-2024,10:00,82.31667,P,ugm-3,43.25276,P,ugm-3,169.46989,P,ugm-3,3.72531,P,ugm-3
11-01-2024,11:00,37.15120,P,ugm-3,27.54660,P,ugm-3,84.51098,P,ugm-3,5.73764,P,ugm-3
11-01-2024,12:00,40.94743,P,ugm-3,26.50380,P,ugm-3,89.28898,P,ugm-3,7.48388,P,ugm-3
11-01-2024,13:00,52.36858,P,ugm-3,34.32499,P,ugm-3,114.62237,P,ugm-3,7.83312,P,ugm-3
11-01-2024,14:00,41.01232,P,ugm-3,39.14564,P,ugm-3,102.03033,P,ugm-3,12.02409,P,ugm-3
11-01-2024,15:00,33.38741,P,ugm-3,38.74269,P,ugm-3,89.93600,P,ugm-3,7.93291,P,ugm-3
11-01-2024,16:00,25.11356,P,ugm-3,34.60652,P,ugm-3,73.11344,P,ugm-3,18.21076,P,ugm-3
11-01-2024,17:00,19.24075,P,ugm-3,43.51183,P,ugm-3,73.01390,P,ugm-3,7.93291,P,ugm-3
11-01-2024,18:00,60.22063,P,ugm-3,42.54211,P,ugm-3,134.87912,P,ugm-3,5.48818,P,ugm-3
11-01-2024,19:00,36.56716,P,ugm-3,42.17888,P,ugm-3,98.24774,P,ugm-3,4.93936,P,ugm-3
11-01-2024,20:00,13.85464,P,ugm-3,33.00679,P,ugm-3,54.25027,P,ugm-3,6.18667,P,ugm-3
11-01-2024,21:00,9.86372,P,ugm-3,30.06781,P,ugm-3,45.19197,P,ugm-3,6.83527,P,ugm-3
11-01-2024,22:00,3.82868,P,ugm-3,26.72937,P,ugm-3,32.59993,P,ugm-3,12.67270,P,ugm-3
11-01-2024,23:00,3.14731,P,ugm-3,22.44865,P,ugm-3,27.27445,P,ugm-3,18.85937,P,ugm-3
11-01-2024,24:00,1.33031,P,ugm-3,19.31194,P,ugm-3,21.35171,P,ugm-3,18.51012,P,ugm-3
12-01-2024,01:00,0.82203,P,ugm-3,10.35891,P,ugm-3,11.61934,P,ugm-3,37.85178,P,ugm-3
12-01-2024,02:00,0.60571,P,ugm-3,6.83962,P,ugm-3,7.76836,P,ugm-3,38.11787,P,ugm-3
12-01-2024,03:00,0.68142,P,ugm-3,4.33327,P,ugm-3,5.37809,P,ugm-3,47.04863,P,ugm-3
12-01-2024,04:00,0.68142,P,ugm-3,3.43692,P,ugm-3,4.48175,P,ugm-3,48.99444,P,ugm-3
12-01-2024,05:00,0.61652,P,ugm-3,3.43683,P,ugm-3,4.38215,P,ugm-3,50.64089,P,ugm-3
12-01-2024,06:00,5.71094,P,ugm-3,9.61851,P,ugm-3,18.37515,P,ugm-3,47.49766,P,ugm-3
12-01-2024,07:00,1.97936,P,ugm-3,9.86249,P,ugm-3,12.89746,P,ugm-3,41.16131,P,ugm-3
12-01-2024,08:00,1.10325,P,ugm-3,17.13170,P,ugm-3,18.82333,P,ugm-3,33.07873,P,ugm-3
12-01-2024,09:00,1.42773,P,ugm-3,17.19853,P,ugm-3,19.38770,P,ugm-3,25.24561,P,ugm-3
12-01-2024,10:00,2.62833,P,ugm-3,25.35028,P,ugm-3,29.38033,P,ugm-3,18.56001,P,ugm-3
12-01-2024,11:00,5.64604,P,ugm-3,27.74459,P,ugm-3,36.40173,P,ugm-3,24.64690,P,ugm-3
12-01-2024,12:00,2.72567,P,ugm-3,9.16633,P,ugm-3,13.34564,P,ugm-3,53.23530,P,ugm-3
12-01-2024,13:00,2.92037,P,ugm-3,11.60665,P,ugm-3,16.08448,P,ugm-3,50.44132,P,ugm-3
12-01-2024,14:00,3.60178,P,ugm-3,14.44600,P,ugm-3,19.96866,P,ugm-3,47.19831,P,ugm-3
12-01-2024,15:00,3.66668,P,ugm-3,13.10157,P,ugm-3,18.72373,P,ugm-3,49.04433,P,ugm-3
12-01-2024,16:00,3.43954,P,ugm-3,13.54944,P,ugm-3,18.82333,P,ugm-3,48.44562,P,ugm-3
12-01-2024,17:00,3.08261,P,ugm-3,13.29997,P,ugm-3,18.02657,P,ugm-3,48.44562,P,ugm-3
12-01-2024,18:00,1.94691,P,ugm-3,8.91630,P,ugm-3,11.90152,P,ugm-3,50.74067,P,ugm-3
12-01-2024,19:00,7.82009,P,ugm-3,13.85409,P,ugm-3,25.84473,P,ugm-3,47.09852,P,ugm-3
12-01-2024,20:00,11.42187,P,ugm-3,21.57748,P,ugm-3,39.09077,P,ugm-3,45.00304,P,ugm-3
12-01-2024,21:00,0.94101,P,ugm-3,6.67408,P,ugm-3,8.11694,P,ugm-3,60.12046,P,ugm-3
12-01-2024,22:00,1.07080,P,ugm-3,6.62446,P,ugm-3,8.26633,P,ugm-3,64.56090,P,ugm-3
12-01-2024,23:00,0.45428,P,ugm-3,4.08398,P,ugm-3,4.78053,P,ugm-3,70.29853,P,ugm-3
12-01-2024,24:00,0.87611,P,ugm-3,3.63637,P,ugm-3,4.97972,P,ugm-3,73.54155,P,ugm-3
13-01-2024,01:00,0.86535,P,ugm-3,4.25338,P,ugm-3,5.58022,P,ugm-3,71.04692,P,ugm-3
13-01-2024,02:00,0.56248,P,ugm-3,3.25629,P,ugm-3,4.11874,P,ugm-3,70.18212,P,ugm-3
13-01-2024,03:00,0.51921,P,ugm-3,3.43888,P,ugm-3,4.23499,P,ugm-3,65.05982,P,ugm-3
13-01-2024,04:00,0.45431,P,ugm-3,4.93345,P,ugm-3,5.63005,P,ugm-3,57.67573,P,ugm-3
13-01-2024,05:00,0.68146,P,ugm-3,5.58162,P,ugm-3,6.62652,P,ugm-3,59.37208,P,ugm-3
13-01-2024,06:00,0.71391,P,ugm-3,6.62798,P,ugm-3,7.72263,P,ugm-3,49.49336,P,ugm-3
13-01-2024,07:00,1.16822,P,ugm-3,16.44413,P,ugm-3,18.23538,P,ugm-3,28.43873,P,ugm-3
13-01-2024,08:00,3.05035,P,ugm-3,30.09962,P,ugm-3,34.77676,P,ugm-3,16.16517,P,ugm-3
13-01-2024,09:00,12.16895,P,ugm-3,39.73426,P,ugm-3,58.39306,P,ugm-3,6.78538,P,ugm-3
13-01-2024,10:00,19.72993,P,ugm-3,39.30138,P,ugm-3,69.55351,P,ugm-3,5.48818,P,ugm-3
13-01-2024,11:00,35.27373,P,ugm-3,41.22658,P,ugm-3,95.31222,P,ugm-3,6.58581,P,ugm-3
13-01-2024,12:00,56.00963,P,ugm-3,52.47943,P,ugm-3,138.35967,P,ugm-3,6.83527,P,ugm-3
13-01-2024,13:00,64.18716,P,ugm-3,49.10823,P,ugm-3,147.52718,P,ugm-3,6.83527,P,ugm-3
13-01-2024,14:00,10.93583,P,ugm-3,18.30766,P,ugm-3,35.07570,P,ugm-3,54.53250,P,ugm-3
13-01-2024,15:00,1.23312,P,ugm-3,6.47958,P,ugm-3,8.37034,P,ugm-3,70.84735,P,ugm-3
13-01-2024,16:00,0.71391,P,ugm-3,5.23293,P,ugm-3,6.32758,P,ugm-3,71.89509,P,ugm-3
13-01-2024,17:00,4.02387,P,ugm-3,21.73128,P,ugm-3,27.90112,P,ugm-3,48.09637,P,ugm-3
13-01-2024,18:00,3.95897,P,ugm-3,38.82058,P,ugm-3,44.89091,P,ugm-3,19.00904,P,ugm-3
13-01-2024,19:00,9.41066,P,ugm-3,44.26253,P,ugm-3,58.69200,P,ugm-3,12.37334,P,ugm-3
13-01-2024,20:00,10.61133,P,ugm-3,47.45369,P,ugm-3,63.72417,P,ugm-3,8.83097,P,ugm-3
13-01-2024,21:00,7.07422,P,ugm-3,37.78069,P,ugm-3,48.62767,P,ugm-3,12.72259,P,ugm-3
13-01-2024,22:00,14.82990,P,ugm-3,38.94255,P,ugm-3,61.68141,P,ugm-3,7.58366,P,ugm-3
13-01-2024,23:00,22.58558,P,ugm-3,41.44965,P,ugm-3,76.08038,P,ugm-3,4.04129,P,ugm-3
13-01-2024,24:00,4.80268,P,ugm-3,19.29153,P,ugm-3,26.65554,P,ugm-3,19.05894,P,ugm-3
14-01-2024,01:00,0.90867,P,ugm-3,8.24433,P,ugm-3,9.63761,P,ugm-3,37.91830,P,ugm-3
14-01-2024,02:00,0.64905,P,ugm-3,10.50347,P,ugm-3,11.49866,P,ugm-3,34.85823,P,ugm-3
14-01-2024,03:00,0.74641,P,ugm-3,8.02787,P,ugm-3,9.17234,P,ugm-3,40.21336,P,ugm-3
14-01-2024,04:00,0.61660,P,ugm-3,5.68457,P,ugm-3,6.63001,P,ugm-3,44.75357,P,ugm-3
14-01-2024,05:00,0.51924,P,ugm-3,4.33836,P,ugm-3,5.13452,P,ugm-3,59.07272,P,ugm-3
14-01-2024,06:00,0.51924,P,ugm-3,4.38821,P,ugm-3,5.18437,P,ugm-3,60.76907,P,ugm-3
14-01-2024,07:00,0.42188,P,ugm-3,4.73689,P,ugm-3,5.38377,P,ugm-3,64.51100,P,ugm-3
14-01-2024,08:00,0.45434,P,ugm-3,4.18863,P,ugm-3,4.88527,P,ugm-3,66.60649,P,ugm-3
14-01-2024,09:00,0.77886,P,ugm-3,10.66999,P,ugm-3,11.86423,P,ugm-3,47.64734,P,ugm-3
14-01-2024,10:00,1.71999,P,ugm-3,19.74524,P,ugm-3,22.38252,P,ugm-3,31.73163,P,ugm-3
14-01-2024,11:00,2.40149,P,ugm-3,19.84682,P,ugm-3,23.52906,P,ugm-3,38.66669,P,ugm-3
14-01-2024,12:00,2.72602,P,ugm-3,18.45193,P,ugm-3,22.63176,P,ugm-3,52.08777,P,ugm-3
14-01-2024,13:00,0.77886,P,ugm-3,3.29224,P,ugm-3,4.48647,P,ugm-3,76.83445,P,ugm-3
14-01-2024,14:00,0.55169,P,ugm-3,1.24777,P,ugm-3,2.09369,P,ugm-3,78.83015,P,ugm-3
14-01-2024,15:00,0.68151,P,ugm-3,1.24813,P,ugm-3,2.29309,P,ugm-3,78.18155,P,ugm-3
14-01-2024,16:00,0.84377,P,ugm-3,5.63535,P,ugm-3,6.92911,P,ugm-3,70.89724,P,ugm-3
14-01-2024,17:00,1.88225,P,ugm-3,23.83336,P,ugm-3,26.71944,P,ugm-3,45.05293,P,ugm-3
14-01-2024,18:00,8.82710,P,ugm-3,38.30899,P,ugm-3,51.84369,P,ugm-3,23.34969,P,ugm-3
14-01-2024,19:00,11.16369,P,ugm-3,49.28239,P,ugm-3,66.39980,P,ugm-3,14.61850,P,ugm-3
14-01-2024,20:00,0.97358,P,ugm-3,6.88195,P,ugm-3,8.37475,P,ugm-3,69.30068,P,ugm-3
14-01-2024,21:00,2.59621,P,ugm-3,12.71886,P,ugm-3,16.69965,P,ugm-3,54.08347,P,ugm-3
14-01-2024,22:00,1.03848,P,ugm-3,12.91395,P,ugm-3,14.50626,P,ugm-3,49.84261,P,ugm-3
14-01-2024,23:00,0.73559,P,ugm-3,4.92054,P,ugm-3,6.04843,P,ugm-3,62.46541,P,ugm-3
14-01-2024,24:00,0.68151,P,ugm-3,4.18926,P,ugm-3,5.23422,P,ugm-3,67.32161,P,ugm-3
15-01-2024,01:00,0.60582,P,ugm-3,4.92320,P,ugm-3,5.85211,P,ugm-3,60.07057,P,ugm-3
15-01-2024,02:00,0.82218,P,ugm-3,3.46093,P,ugm-3,4.72159,P,ugm-3,51.62211,P,ugm-3
15-01-2024,03:00,0.58418,P,ugm-3,5.38864,P,ugm-3,6.28437,P,ugm-3,53.68433,P,ugm-3
15-01-2024,04:00,0.74646,P,ugm-3,4.39168,P,ugm-3,5.53623,P,ugm-3,62.31573,P,ugm-3
15-01-2024,05:00,0.55173,P,ugm-3,3.04435,P,ugm-3,3.89033,P,ugm-3,65.40907,P,ugm-3